SCP
0 0 0 0 0 0 0 0 0 0 0 0 0 0 0 0 0 0 0 0 0 0 0 0 0 0 0 0 0 1 1 1 1 2 2 2 2 2 2 2 1 1 1 1
0 0 0 0 0 0 0 0 0 0 0 0 0 0 0 0 0 0 0 0 0 0 0 0 0 0 0 0 0 1 1 1 1 2 2 2 2 2 2 2 1 1 1 1
0 0 0 0 0 0 0 0 0 0 0 0 0 0 0 0 0 0 0 0 0 0 0 0 0 0 0 0 0 1 1 1 1 1 1 2 2 2 2 1 1 1 1 0
0 0 0 0 0 0 0 0 0 0 0 0 0 0 0 0 0 0 0 0 0 0 0 0 0 0 0 0 0 1 1 1 1 1 1 1 1 2 1 1 1 1 1 1
0 0 0 0 0 0 0 0 0 0 0 0 0 0 0 0 0 0 0 0 0 0 0 0 0 0 0 0 0 1 1 1 1 1 1 1 1 1 1 1 1 1 1 1
0 0 0 0 0 0 0 0 0 0 0 0 0 0 0 0 0 0 0 0 0 0 0 0 0 0 0 0 0 0 1 1 1 1 1 1 1 1 1 1 1 1 1 1
0 0 0 0 0 0 0 0 0 0 0 0 0 0 0 0 0 0 0 0 0 0 0 0 0 0 0 0 0 0 0 1 1 1 1 1 1 1 1 1 1 1 1 1
0 0 0 0 0 0 0 0 0 0 0 0 0 0 0 0 0 0 0 0 0 0 0 0 0 0 0 0 0 0 0 0 0 1 1 1 1 1 1 0 0 0 0 0
0 0 0 0 0 0 0 0 0 0 0 0 0 0 0 0 0 0 0 0 0 0 0 0 0 0 0 0 0 0 0 0 0 1 1 1 1 1 1 1 0 0 0 0
0 0 0 0 0 0 0 0 0 0 0 0 0 0 0 0 0 0 0 0 0 0 0 0 0 0 0 0 0 0 0 0 0 0 1 1 1 1 1 1 1 1 0 0
0 0 0 0 0 0 0 0 0 0 0 0 0 0 0 0 0 0 0 0 0 0 0 0 0 0 0 0 0 0 0 0 0 0 0 1 1 1 1 1 1 1 1 1
0 0 0 0 0 0 0 0 0 0 0 0 0 0 0 0 0 0 0 0 0 0 0 0 0 0 0 0 0 0 0 0 0 0 0 1 1 2 1 1 1 1 1 1
0 0 0 0 0 0 0 0 0 0 0 0 0 0 0 0 0 0 0 0 0 0 0 0 0 0 0 0 0 0 0 0 0 0 1 1 2 1 1 0 0 1 1 1
0 0 0 0 0 0 0 0 0 0 0 0 0 0 0 0 0 0 0 0 0 0 0 0 0 0 0 0 0 0 0 0 0 0 1 1 1 1 0 0 0 1 1 1
0 0 0 0 0 0 0 0 0 0 0 0 0 0 0 0 0 0 0 0 0 0 0 0 0 0 0 0 0 0 0 0 0 0 0 1 1 1 0 0 0 1 1 1
0 0 0 0 0 0 0 0 0 0 0 0 0 0 0 0 0 0 0 0 0 0 0 0 0 0 0 0 0 0 0 0 0 0 0 0 0 0 0 0 0 1 1 1
0 0 0 0 0 0 0 0 0 0 0 0 0 0 0 0 0 0 0 0 0 0 0 0 0 0 0 0 0 0 0 0 0 0 0 0 0 0 0 0 0 1 1 1
0 0 0 0 0 0 0 0 0 0 0 0 0 0 0 0 0 0 0 0 0 0 0 0 0 0 0 0 0 0 0 0 0 0 0 0 0 0 0 0 0 1 1 1
0 0 0 0 0 0 0 0 0 0 0 0 0 0 0 0 0 0 0 0 0 0 0 0 0 0 0 0 0 0 0 0 0 0 0 0 0 0 0 0 0 1 1 1
0 0 0 0 0 0 0 0 0 0 0 0 0 0 0 0 0 0 0 0 0 0 0 0 0 0 0 0 0 0 0 0 0 0 0 0 0 0 0 0 0 0 1 1
0 0 0 0 0 0 0 0 0 0 0 0 0 0 0 0 0 0 0 0 0 0 0 0 0 0 0 0 0 0 0 0 0 0 0 0 0 0 0 0 0 0 1 1
0 0 0 0 0 0 0 0 0 0 0 0 0 0 0 0 0 0 0 0 0 0 0 0 0 0 0 0 0 0 0 0 0 0 0 0 0 0 0 0 0 0 0 1
0 0 0 0 0 0 0 0 0 0 0 0 0 0 0 0 0 0 0 0 0 0 0 0 0 0 0 0 0 0 0 0 0 0 0 0 0 0 0 0 0 0 0 0
0 0 0 0 0 0 0 0 0 0 0 0 0 0 0 0 0 0 0 0 0 0 0 0 0 0 0 0 0 0 0 0 0 0 0 0 0 0 0 0 0 0 0 0
0 0 0 0 0 0 0 0 0 0 0 0 0 0 0 0 0 0 0 0 0 0 0 0 0 0 0 0 0 0 0 0 0 0 0 0 0 0 0 0 0 0 0 0
0 0 0 0 0 0 0 0 0 0 0 0 0 0 0 0 0 0 0 0 0 0 0 0 0 0 0 0 0 0 0 0 0 0 0 0 0 0 0 0 0 0 0 0
Wind_Speed
3 5 7 9 10 7 6 8 11 9 5 8 13 17 16 12 12 12 11 11 10 10 9 7 7 7 6 7 7 7 7 6 5 4 3 3 3 3 3 3 4 4 4 5
4 8 8 5 6 5 7 10 11 8 5 8 12 18 16 13 13 13 13 12 12 11 9 8 8 7 8 8 8 7 7 7 7 5 4 3 3 3 3 3 3 4 4 5
8 3 4 5 6 7 9 11 10 8 7 7 10 15 12 10 10 11 12 12 12 11 11 10 9 8 8 8 9 7 8 7 7 6 4 3 3 2 3 4 4 4 5 5
7 4 5 6 8 8 9 7 8 8 8 7 5 11 10 8 9 11 12 11 11 10 10 10 9 9 9 9 8 8 8 8 7 7 6 7 5 5 5 4 4 4 5 5
5 5 7 8 8 7 5 3 5 7 9 10 8 11 11 5 10 12 11 10 10 9 9 9 9 9 9 8 8 8 8 8 8 8 8 8 7 5 4 4 5 5 5 5
4 3 5 5 3 4 2 1 2 3 5 10 10 12 12 7 9 9 9 8 7 7 7 8 7 7 7 7 7 7 8 9 8 9 9 9 9 7 6 6 5 5 4 4
3 4 3 3 3 3 3 3 3 4 6 9 4 10 12 6 7 8 8 7 6 5 5 6 6 6 7 7 7 7 8 9 9 10 9 9 9 9 9 8 7 6 5 4
5 5 6 5 5 5 7 7 6 6 7 6 5 12 9 5 6 7 7 7 6 5 4 5 5 6 6 7 7 7 8 9 8 9 9 9 8 7 6 8 7 7 5 5
5 4 2 3 3 5 6 7 4 4 5 8 9 10 10 7 7 6 5 4 5 5 5 5 5 5 6 6 7 7 8 8 8 8 9 8 8 7 7 7 7 6 5 5
3 4 3 2 3 4 5 4 3 5 6 9 10 11 8 5 6 5 4 4 5 5 5 5 5 5 5 5 5 5 6 7 6 7 7 6 8 8 7 6 7 7 6 5
3 3 2 3 7 8 6 6 6 5 6 7 9 8 3 5 5 5 5 4 5 5 5 5 4 4 3 3 3 4 4 5 5 5 6 6 6 6 7 6 7 7 6 6
3 3 4 6 3 5 7 9 9 7 8 8 9 11 2 4 4 5 5 5 5 5 5 4 4 3 3 3 3 3 3 4 4 4 5 5 5 5 5 6 6 6 7 7
5 4 3 3 3 3 5 7 7 6 6 8 11 12 2 4 5 5 6 6 5 5 5 5 4 4 4 4 3 3 3 4 4 4 5 5 5 5 6 5 5 5 5 6
3 5 8 10 7 4 7 8 9 8 9 11 16 18 12 9 9 8 8 7 6 5 5 5 5 4 4 4 4 4 4 4 4 4 5 5 5 5 5 5 5 5 6 5
3 5 6 9 9 8 11 12 12 14 15 14 17 18 17 12 11 10 9 7 7 6 6 5 5 5 4 4 4 4 4 4 4 4 5 5 4 5 5 5 5 5 6 6
3 5 3 7 8 8 11 15 16 17 16 18 19 21 12 11 9 9 8 7 8 7 6 6 6 5 5 4 4 4 4 4 4 4 5 4 3 4 5 5 5 5 6 6
5 5 5 7 4 5 13 14 15 13 13 14 18 17 10 9 10 10 9 8 8 8 7 7 6 6 5 5 5 5 5 4 4 4 4 4 4 4 4 5 5 6 6 5
7 6 4 4 2 13 8 3 9 13 14 14 13 13 10 11 12 10 8 7 8 8 8 7 6 6 5 5 4 4 4 4 4 4 4 4 4 4 4 4 5 5 5 5
8 8 5 4 8 12 10 6 7 9 12 10 13 13 10 9 9 7 5 7 8 8 7 6 6 6 5 4 4 3 3 3 3 4 4 4 4 4 4 5 5 5 5 5
4 6 6 6 8 12 8 2 2 4 10 5 8 11 9 6 7 7 5 7 7 6 5 5 5 5 4 4 3 4 4 4 4 5 5 5 4 5 5 5 5 4 4 4
5 6 9 10 11 12 6 2 4 6 6 2 6 9 8 8 10 8 7 6 6 6 6 5 5 4 4 4 3 4 4 5 5 4 4 4 4 4 5 4 4 4 4 3
9 8 9 8 10 12 4 6 7 6 4 4 6 7 8 9 9 8 7 6 6 5 6 5 5 5 4 3 3 4 5 4 3 3 4 4 4 3 3 4 3 3 4 4
9 8 6 10 9 3 4 6 4 4 6 6 7 8 8 8 8 7 7 7 6 5 5 5 5 5 5 4 3 4 4 3 3 3 3 3 3 3 3 3 3 3 3 3
6 4 6 8 10 6 6 6 6 6 7 7 7 8 7 8 8 7 6 6 6 5 5 5 5 5 5 5 4 4 4 3 2 3 3 3 3 2 2 2 3 3 4 4
7 6 7 10 8 6 6 6 7 7 7 7 7 7 7 7 7 7 6 6 6 5 5 5 4 5 5 5 4 4 3 2 2 2 2 2 2 2 2 2 3 3 4 4
7 8 9 9 5 6 7 5 7 7 7 8 8 7 6 6 7 6 6 5 5 5 5 5 5 5 5 5 4 4 3 2 2 2 2 2 2 2 2 2 2 3 3 4
Wind_Direction
177 201 214 217 221 253 252 251 260 268 279 267 264 269 269 266 260 258 257 256 254 254 255 249 240 230 224 220 216 212 207 202 191 187 196 200 209 201 200 202 202 200 195 189
182 225 232 226 219 232 241 253 263 276 279 272 278 275 270 260 250 251 254 256 256 256 252 244 237 229 221 218 216 214 211 205 198 196 199 210 206 211 205 197 202 201 198 194
213 226 211 207 215 232 244 250 260 274 296 271 286 275 257 250 245 247 248 251 252 251 250 247 238 229 225 221 217 216 213 210 204 196 188 184 186 199 197 201 203 203 201 197
226 225 201 213 225 230 251 254 259 265 272 273 273 284 266 255 250 245 246 246 250 248 246 244 240 235 230 227 221 219 216 212 207 195 195 196 203 208 211 206 203 201 203 200
218 210 213 226 234 228 255 283 265 264 262 272 250 261 269 247 253 249 247 247 251 251 248 247 244 241 237 231 224 221 219 213 209 202 202 203 211 211 208 203 204 199 199 201
244 232 227 229 238 222 208 265 287 262 251 255 241 244 269 238 248 253 250 255 258 259 258 253 250 248 242 235 228 222 219 216 211 207 207 208 209 206 203 205 206 203 199 200
240 222 210 194 180 174 202 213 250 240 233 250 234 244 259 256 252 254 258 265 271 271 266 258 253 249 245 236 229 225 221 221 217 211 210 212 211 208 208 208 209 206 202 203
221 230 198 198 211 206 214 220 233 254 260 277 249 248 261 272 271 269 272 273 279 279 277 267 258 251 247 241 233 226 225 225 221 216 214 214 213 212 212 213 212 211 209 208
218 234 194 229 252 210 201 222 251 262 284 273 256 264 275 263 265 266 267 273 278 286 285 278 270 262 255 248 238 232 227 226 223 222 217 216 213 214 215 214 215 215 214 207
219 246 236 231 207 222 232 207 200 221 250 261 266 265 267 266 262 275 282 292 301 303 298 291 283 277 269 259 244 233 230 228 227 225 220 218 216 216 215 213 214 213 211 205
212 219 228 208 211 210 197 211 223 227 247 257 271 267 269 270 279 276 283 307 311 303 304 304 299 289 276 268 255 237 233 232 228 226 225 216 217 217 217 215 215 213 209 205
194 214 242 250 269 273 238 227 215 229 240 246 267 272 312 289 290 284 294 306 308 304 306 305 301 293 282 270 263 256 245 241 238 233 230 222 217 215 216 218 219 216 212 206
168 181 236 260 216 210 233 229 229 243 247 241 250 265 300 287 287 291 295 302 303 304 309 307 302 293 283 274 267 265 262 251 245 236 229 225 217 216 218 220 218 215 216 212
189 207 226 245 263 229 243 241 228 227 239 248 249 265 277 284 291 297 299 302 300 299 303 303 301 294 283 275 273 271 271 262 244 232 228 228 224 222 224 220 215 214 214 214
196 234 240 265 274 256 254 248 233 231 238 248 261 267 274 282 290 293 295 296 295 297 299 302 300 295 288 279 275 276 275 274 252 236 234 236 236 226 224 219 215 216 215 215
200 233 240 268 269 267 264 255 245 243 245 251 263 268 273 287 292 288 284 283 284 288 290 296 297 293 285 278 274 272 271 271 254 241 245 247 241 228 223 221 216 214 216 213
196 195 221 258 285 288 257 238 229 234 236 241 251 261 287 289 284 278 276 275 279 284 285 285 286 283 282 279 272 265 264 266 258 249 252 250 246 239 228 220 215 216 216 214
199 199 223 248 245 247 257 232 229 240 247 243 253 269 279 277 282 275 264 271 280 284 284 285 285 283 281 283 279 271 265 258 257 254 254 253 248 249 242 222 216 215 215 214
208 199 209 214 242 267 275 246 217 232 259 245 249 265 280 298 295 271 275 285 284 284 285 286 287 287 285 283 284 271 263 256 253 253 254 253 245 242 239 231 225 218 213 215
199 203 214 219 238 254 265 225 217 237 261 239 247 265 280 296 285 284 306 298 296 296 296 297 297 297 288 286 280 264 256 252 253 254 255 253 246 239 238 238 233 222 215 217
179 198 216 230 246 260 266 200 172 221 265 285 260 266 266 255 265 298 306 301 305 308 308 307 300 298 295 290 271 257 257 258 265 270 266 260 253 247 241 240 235 221 213 212
194 198 209 212 232 249 177 169 207 254 307 298 287 279 271 270 282 292 296 300 307 310 313 314 309 307 309 301 279 267 267 276 280 270 261 258 258 255 244 236 233 218 204 206
217 213 211 213 234 275 183 215 250 289 283 294 299 301 291 285 288 297 300 303 304 308 313 318 314 311 316 314 298 275 284 294 287 271 263 265 268 260 252 234 226 213 204 207
234 230 234 249 256 258 251 263 282 285 285 295 299 299 293 285 291 300 302 305 310 315 318 320 316 308 311 319 315 300 304 307 288 270 271 271 264 264 261 248 229 220 212 211
228 204 231 253 268 282 258 260 279 287 296 299 300 298 293 292 295 299 301 304 307 312 316 315 308 304 308 316 314 320 319 311 294 284 280 281 274 270 266 260 249 243 237 228
213 211 219 245 250 254 272 286 289 287 291 296 298 299 301 295 292 297 299 305 308 309 315 314 312 307 309 312 309 318 321 304 285 282 282 277 274 275 271 269 288 289 269 259